This demonstration page uses our WeatherBlox Daily Observations layout. Learn more.

Left ArrowRight Arrow

Hourly Observations for June 14, 2021

Temp ( °F °C ) Dew Point ( °F °C ) Humidity (%) Winds ( mph kmh ) Pressure ( in mb ) Visibility ( mi km ) Precip ( " mm )
12:59 am 00:59 Mostly Cloudy 67 19.4 60 15.6 79 79 SE 6 9 29.89 1012 10 16 0.00 0.00
1:59 am 01:59 Mostly Cloudy 68 20 60 15.6 76 76 SE 6 9 29.88 1012 10 16 0.00 0.00
2:59 am 02:59 Mostly Cloudy 68 20 61 16.1 78 78 Calm 29.88 1012 10 16 0.00 0.00
3:59 am 03:59 Cloudy 68 20 62 16.7 81 81 SE 3 6 29.89 1012 10 16 0.00 0.00
4:59 am 04:59 Mostly Cloudy 67 19.4 62 16.7 84 84 SSE 5 7 29.88 1012 10 16 0.00 0.00
5:59 am 05:59 Partly Cloudy 66 18.9 62 16.7 87 87 VRB 3 6 29.87 1012 10 16 0.00 0.00
6:59 am 06:59 Mostly Sunny 70 21.1 65 18.3 84 84 SE 3 6 29.88 1012 10 16 0.00 0.00
7:59 am 07:59 Mostly Cloudy 73 22.8 67 19.4 81 81 Calm 29.88 1012 10 16 0.00 0.00
8:59 am 08:59 Mostly Cloudy 76 24.4 68 20 77 77 W 3 6 29.89 1012 10 16 0.00 0.00
9:59 am 09:59 Mostly Cloudy 78 25.6 69 20.6 74 74 NNW 6 9 29.88 1012 10 16 0.00 0.00
10:59 am 10:59 Mostly Cloudy 81 27.2 66 18.9 61 61 SW 6 9 29.87 1012 10 16 0.00 0.00
11:59 am 11:59 Mostly Cloudy 83 28.3 66 18.9 57 57 Calm 29.87 1012 10 16 0.00 0.00
12:59 pm 12:59 Mostly Cloudy 84 28.9 68 20 59 59 N 8 13 29.86 1011 10 16 0.00 0.00
1:59 pm 13:59 Sunny 85 29.4 68 20 57 57 N 6 9 29.85 1011 10 16 0.00 0.00
2:59 pm 14:59 Mostly Cloudy 86 30 68 20 55 55 VRB 5 7 29.83 1010 10 16 0.00 0.00
3:59 pm 15:59 Mostly Sunny 86 30 69 20.6 57 57 E 7 11 29.81 1009 10 16 0.00 0.00
4:59 pm 16:59 Mostly Sunny 86 30 71 21.7 61 61 ENE 8 13 29.79 1009 10 16 0.00 0.00
5:59 pm 17:59 Partly Cloudy 84 28.9 71 21.7 65 65 SSE 10 17 29.78 1009 10 16 0.00 0.00
6:59 pm 18:59 Partly Cloudy 84 28.9 70 21.1 63 63 SSE 9 15 29.78 1008 10 16 0.00 0.00
7:59 pm 19:59 Partly Cloudy 82 27.8 71 21.7 69 69 S 7 11 29.79 1009 10 16 0.00 0.00
8:59 pm 20:59 Partly Cloudy 80 26.7 71 21.7 74 74 S 8 13 29.79 1009 10 16 0.00 0.00
9:59 pm 21:59 Partly Cloudy 79 26.1 70 21.1 74 74 S 9 15 29.80 1009 10 16 0.00 0.00
10:59 pm 22:59 Partly Cloudy 78 25.6 71 21.7 79 79 S 10 17 29.80 1009 10 16 0.00 0.00
11:59 pm 23:59 Partly Cloudy 78 25.6 71 21.7 79 79 S 8 13 29.79 1009 10 16 0.00 0.00

Powered by AerisWeather